Regional Weather Roundup
Issued by NWS

Home | Current Version | Previous Version | Text Only | Print | Product List | Glossary On
Versions: 1 2 3 4 5 6 7 8 9 10 11 12 13 14 15 16 17 18 19 20 21 22 23 24 25 26 27 28 29 30 31 32 33 34 35 36 37 38 39 40 41 42 43 44 45 46 47 48 49 50
000
ASUS46 KSTO 281415
RWRCA

NORTHERN AND CENTRAL CA REGIONAL WEATHER ROUNDUP
NATIONAL WEATHER SERVICE SACRAMENTO CA
700 AM PDT THU JUL 28 2016

NOTE: FAIR INDICATES FEW OR NO CLOUDS BELOW 12,000 FEET WITH NO
SIGNIFICANT WEATHER AND/OR OBSTRUCTIONS TO VISIBILITY.

CAZ001-003-281500-
NORTHWEST AREA

CITY           SKY/WX    TMP DP  RH WIND       PRES   REMARKS
CRESCENT CITY  FOG       53  53 100 CALM      29.93S VSB 1/4
UKIAH          CLEAR     60  50  69 CALM      29.91R
$$

CAZ006-505>513-281500-
BAY AREA

CITY           SKY/WX    TMP DP  RH WIND       PRES   REMARKS
SANTA ROSA     CLOUDY    50  50 100 CALM      29.91R FOG
SAN RAFAEL     N/A       55  MM  MM MISG
NAPA           CLEAR     53  51  93 CALM      29.91R
CONCORD        PTCLDY    60  50  69 NW6       29.88R
OAKLAND CITY   N/A       54  MM  MM MISG
OAKLAND        CLOUDY    57  54  89 NW6       29.92R
SAN FRAN CITY  N/A       52  MM  98 MISG
SAN FRAN ARPT  PTCLDY    54  51  90 W12       29.92R
LIVERMORE      PTCLDY    64  51  62 NW3       29.88R
HAYWARD        CLEAR     57  50  77 MISG      29.91R
REDWOOD CITY   N/A       57  MM  83 MISG
MOFFETT ARPT   CLOUDY    61  56  83 NW3       29.92R
SAN JOSE ARPT  PTCLDY    61  56  83 NW7       29.91R
$$
CAZ034-037-514>518-281500-
CENTRAL COAST

CITY           SKY/WX    TMP DP  RH WIND       PRES   REMARKS
WATSONVILLE    CLOUDY    53  52  96 SE3       29.94R
SALINAS        CLOUDY    54  51  90 VRB3      29.93R
MONTEREY       CLOUDY    53  52  96 CALM      29.94R
SAN LUIS OBISP CLOUDY    56  53  90 W3        29.92R FOG
SANTA MARIA    FOG       55  55 100 CALM      29.93R VSB 1
$$
CAZ015-016-281500-
NORTHERN SACRAMENTO VALLEY

CITY           SKY/WX    TMP DP  RH WIND       PRES   REMARKS
REDDING        CLEAR     74  55  51 CALM      29.87R
RED BLUFF      CLEAR     73  54  51 NW6       29.87R
OROVILLE       CLEAR     75  54  47 CALM      29.87R
$$
CAZ016>018-281500-
SOUTHERN SACRAMENTO VALLEY

CITY           SKY/WX    TMP DP  RH WIND       PRES   REMARKS
BEALE AFB      CLEAR     71  54  53 N3        29.84R
LINCOLN        FAIR      72  46  40 S5        29.84R
MARYSVILLE     CLEAR     69  56  62 NW3       29.85R
SAC INTL ARPT  PTCLDY    65  53  65 SW3       29.84R
MATHER AIRPORT PTCLDY    70  50  49 S6        29.85
DOWNTOWN SAC   N/A       70  MM  MM MISG
SAC EXEC ARPT  CLEAR     67  52  58 S6        29.84R
VACAVILLE      CLEAR     69  52  54 SW5       29.85R
TRAVIS AFB     PTCLDY    62  52  70 SW14      29.84R
$$
CAZ019>021-281500-
SAN JOAQUIN VALLEY

CITY           SKY/WX    TMP DP  RH WIND       PRES   REMARKS
STOCKTON       PTCLDY    71  54  54 NW7       29.85R
MODESTO        PTCLDY    76  52  43 NW6       29.83R
MERCED         CLEAR     73  54  51 N3        29.83R
LEMOORE        PTCLDY    72  41  32 W3        29.86R
FRESNO         MOSUNNY   77  53  43 NW6       29.85R
HANFORD        SUNNY     72  56  57 SW3       29.86R
PORTERVILLE    SUNNY     75  55  49 S7        29.88R
BAKERSFIELD    SUNNY     84  48  28 E3        29.87R
$$
CAZ011-012-071-281500-
NORTHERN MOUNTAINS

CITY           SKY/WX    TMP DP  RH WIND       PRES   REMARKS
YREKA          CLEAR     62  47  57 CALM      30.08R
MOUNT SHASTA   CLEAR     60  49  66 E3        30.11R
ALTURAS        SUNNY     56  39  53 N3        30.18R
$$
CAZ011-012-071-281500-
SIERRA NEVADA MTNS

CITY           SKY/WX    TMP DP  RH WIND       PRES   REMARKS
BLUE CANYON    SUNNY     77  33  20 E3        30.22R
TRUCKEE        SUNNY     52  39  62 CALM      30.31R
TAHOE VLY ARPT SUNNY     50  40  68 CALM      30.31R
MAMMOTH LAKES    N/A     59  38  45 NW3       30.37S
$$



USA.gov is the U.S. government's official web portal to all federal, state and local government web resources and services.